Location: Unspecified
(0.0000°N, 0.0000°E)
Time: 10:06:30
(UTC+00:00)

CBERS-1 - Visible Passes

Search period start: 09 November 2025 00:00
Search period end: 19 November 2025 00:00
Orbit: 766 x 771 km, 98.8° (Epoch: 08 November)

Date Brightness Start Highest point End Pass type
(mag) Time Alt. Az. Time Alt. Az. Time Alt. Az.
09 Nov 7.1 18:20:48 10° SSW 18:24:28 20° WSW 18:28:07 10° WNW visible
10 Nov 4.8 05:12:15 10° NNE 05:17:16 59° ESE 05:22:16 10° S visible
11 Nov 6.8 04:37:53 10° NE 04:41:41 21° ESE 04:45:28 10° SSE visible
12 Nov 6.6 18:12:16 10° SSW 18:16:24 25° WSW 18:20:33 10° NW visible
13 Nov 5.3 05:04:20 10° NNE 05:09:11 46° ESE 05:14:02 10° S visible
14 Nov 7.1 04:30:27 10° ENE 04:33:36 17° ESE 04:36:47 10° SE visible
14 Nov 7.6 18:42:17 10° WSW 18:43:55 11° WSW 18:45:32 10° W visible
15 Nov 6.2 18:03:50 10° SSW 18:08:20 32° WSW 18:12:51 10° NW visible
16 Nov 5.8 04:56:31 10° NE 05:01:08 36° ESE 05:05:45 10° SSE visible
17 Nov 7.3 04:23:20 10° ENE 04:25:33 13° ESE 04:27:45 10° SE visible
17 Nov 7.2 18:33:01 10° SW 18:35:51 15° WSW 18:38:41 10° WNW visible
